[[{"header":{"parameterUnit":"m.s-1","parameterCategory":1,"la1":30.2991,"la2":30.254,"lo1":-89.0895,"lo2":-89.0444,"dy":0.0017,"dx":0.0017,"nx":28,"ny":28,"refTime":"2025-08-18T09:00:00:Z","depth":0,"parameterNumber":2,"parameterNumberName":"U-component_of_WINDS"},"data":[0,0,0,0,0,0,0,0,0,0,0,0,0,0,0,0,0,0,0,0,0,0,0,0,0,0,0,0,0,0,0,0,0,0,0,0,0,0,0,0,0,0,0,0,0,0,0,0,0,0,0,0,0,0,0,0,0,0,-0.4795,-0.4797,0,-0.4908,-0.4909,-0.4911,-0.4928,-0.4927,-0.4926,-0.4925,-0.5042,-0.5046,-0.505,0,0,0,0,0,0,0,0,0,0,0,0,0,-0.4597,-0.46,-0.4795,-0.4797,-0.4798,-0.4908,-0.4909,-0.4911,-0.4928,-0.4927,-0.4926,-0.4925,-0.5041,-0.5046,-0.5051,0,0,0,0,0,0,0,0,0,0,0,0,0,-0.4694,-0.4601,-0.4795,-0.482,-0.4823,-0.4908,-0.4909,-0.4911,-0.4928,-0.4927,-0.4925,-0.4924,-0.504,-0.5045,-0.5051,-0.512,0,0,-0.507,-0.5073,0,0,0,0,0,0,0,0,-0.4688,-0.4701,-0.4815,-0.4818,-0.4822,-0.4902,-0.4882,-0.4981,-0.4929,-0.4889,-0.4925,-0.4923,-0.4997,-0.5007,-0.5031,-0.5125,-0.513,-0.5071,-0.5074,-0.5077,-0.5079,0,0,0,0,0,0,0,-0.4681,-0.4696,-0.484,-0.4816,-0.4821,-0.4826,-0.4838,-0.4901,-0.495,-0.4892,-0.4893,-0.4906,-0.4999,-0.5025,-0.5034,-0.5132,-0.5071,-0.5076,-0.508,-0.5082,-0.5287,-0.5289,0,0,0,0,0,0,-0.467,-0.469,-0.4836,-0.4843,-0.475,-0.4831,-0.4844,-0.4878,-0.4949,-0.4959,-0.4908,-0.4907,-0.5016,-0.5027,-0.5038,-0.5123,-0.5077,-0.5083,-0.5086,-0.5285,-0.5287,-0.5289,0,0,0,0,0,0,-0.4666,-0.4683,-0.4832,-0.4767,-0.4787,-0.4836,-0.4874,-0.4881,-0.4908,-0.4961,-0.497,-0.4925,-0.5015,-0.503,-0.5099,-0.5127,-0.5085,-0.5091,-0.5283,-0.5286,-0.5288,-0.5292,0,0,0,0,0,0,-0.466,-0.4681,-0.4707,-0.4768,-0.479,-0.489,-0.4876,-0.4885,-0.4918,-0.4918,-0.498,-0.4989,-0.5015,-0.509,-0.5105,-0.5135,-0.5096,-0.5281,-0.5284,-0.5287,-0.5289,-0.5294,-0.5298,0,0,0,0,0,-0.4653,-0.4704,-0.4708,-0.4726,-0.4824,-0.4892,-0.4905,-0.4932,-0.492,-0.4947,-0.4981,-0.4987,-0.5121,-0.5097,-0.5114,-0.5146,-0.5279,-0.5283,-0.5287,-0.5287,-0.5293,-0.5298,0,0,0,0,0,0,-0.4646,-0.4713,-0.4718,-0.4791,-0.4835,-0.4895,-0.4929,-0.4938,-0.4988,-0.4986,-0.5018,-0.5032,-0.51,-0.513,-0.5101,-0.5215,-0.5199,-0.5207,-0.5193,-0.5199,-0.5204,-0.5195,-0.5101,0,0,0,0,0,-0.4653,-0.4703,-0.4758,-0.4817,-0.4839,-0.488,-0.4911,-0.4928,-0.4976,-0.4995,-0.5035,-0.5082,-0.5134,-0.5169,-0.522,-0.5293,-0.5307,-0.5324,-0.5328,-0.5332,-0.5338,-0.5379,-0.5387,-0.5302,-0.5302,-0.5302,0,0,-0.4668,-0.4711,-0.474,-0.4817,-0.4853,-0.4904,-0.4896,-0.495,-0.4988,-0.5004,-0.5072,-0.5102,-0.5157,-0.5228,-0.5262,-0.5255,-0.5364,-0.5337,-0.5339,-0.5344,-0.5384,-0.5392,-0.5399,-0.5305,-0.5305,-0.5304,0,0,-0.4722,-0.4759,-0.4812,-0.4848,-0.4904,-0.4931,-0.4943,-0.5001,-0.5022,-0.509,-0.5103,-0.5149,-0.5239,-0.5277,-0.5308,-0.5375,-0.5383,-0.5391,-0.5415,-0.5454,-0.5461,-0.5467,-0.5491,-0.5499,-0.5397,-0.5397,-0.5397,0,-0.4734,-0.4811,-0.4838,-0.4891,-0.4925,-0.494,-0.4994,-0.5029,-0.5098,-0.5121,-0.5112,-0.5225,-0.5263,-0.5344,-0.536,-0.5385,-0.54,-0.5384,-0.5457,-0.5464,-0.547,-0.5493,-0.5502,-0.5398,-0.5398,-0.5398,-0.5398,0,-0.4823,-0.4875,-0.4912,-0.4977,-0.5015,-0.5068,-0.5104,-0.5139,-0.5153,-0.518,-0.525,-0.5295,-0.5356,-0.5376,-0.5391,-0.5459,-0.5453,-0.5451,-0.5435,-0.5478,-0.5501,-0.551,-0.5399,-0.5398,-0.5398,-0.5398,0,0,-0.4876,-0.4956,-0.4969,-0.4999,-0.506,-0.5102,-0.5156,-0.5215,-0.5244,-0.5291,-0.5338,-0.5413,-0.5411,-0.5446,-0.5465,-0.5499,-0.5549,-0.5493,-0.5494,-0.5502,-0.5627,-0.5629,-0.5639,-0.5554,-0.5556,-0.5558,-0.5623,0,-0.4937,-0.5034,-0.5059,-0.5141,-0.5191,-0.5205,-0.5253,-0.5296,-0.5323,-0.5369,-0.54,-0.5453,-0.5446,-0.5467,-0.5502,-0.5536,-0.5575,-0.5531,-0.5598,-0.56,-0.5584,-0.5651,-0.5653,-0.5712,-0.5632,-0.5633,-0.5634,0,-0.5022,-0.5069,-0.5156,-0.5211,-0.5233,-0.5274,-0.533,-0.5374,-0.5423,-0.544,-0.5479,-0.5495,-0.5552,-0.5533,-0.5612,-0.5582,-0.5611,-0.5632,-0.5635,-0.5642,-0.562,-0.566,-0.5732,-0.574,-0.5648,-0.5647,-0.5646,0,-0.5052,-0.5138,-0.5201,-0.5226,-0.5292,-0.5321,-0.535,-0.5397,-0.5431,-0.548,-0.5502,-0.5556,-0.5587,-0.5629,-0.5659,-0.5642,-0.5736,-0.5719,-0.5752,-0.5752,-0.5772,-0.577,-0.5849,-0.579,-0.579,-0.579,-0.5789,0,-0.5118,-0.517,-0.5216,-0.5254,-0.5313,-0.5343,-0.5401,-0.543,-0.5472,-0.5517,-0.5534,-0.5575,-0.5612,-0.5659,-0.5683,-0.5745,-0.5759,-0.5775,-0.578,-0.5773,-0.5771,-0.5793,-0.579,-0.5792,-0.5791,-0.5791,-0.5791,0,-0.5162,-0.5195,-0.5264,-0.532,-0.5335,-0.5376,-0.5425,-0.5463,-0.549,-0.5547,-0.5562,-0.5606,-0.5662,-0.5695,-0.5767,-0.5782,-0.5851,-0.5855,-0.5834,-0.5837,-0.5868,-0.5865,-0.5964,-0.5978,-0.5909,-0.591,-0.591,0,-0.5202,-0.5242,-0.5302,-0.5333,-0.5362,-0.5412,-0.5445,-0.5476,-0.551,-0.5569,-0.56,-0.5657,-0.5704,-0.5793,-0.5831,-0.5886,-0.5891,-0.5922,-0.59,-0.5891,-0.5892,-0.5889,-0.5893,-0.5926,-0.5927,-0.5927,-0.5928,0,-0.5269,-0.5283,-0.5331,-0.5384,-0.5424,-0.5468,-0.5511,-0.5536,-0.5573,-0.5611,-0.5668,-0.5705,-0.5777,-0.5833,-0.5891,-0.5921,-0.5931,-0.5934,-0.5945,-0.5938,-0.5925,-0.5932,-0.5845,-0.5932,-0.5932,-0.5931,-0.5931,-0.5931,-0.5313,-0.5349,-0.5397,-0.5449,-0.5485,-0.5525,-0.5564,-0.5595,-0.5643,-0.5704,-0.5719,-0.5779,-0.5827,-0.5905,-0.5936,-0.5984,-0.5979,-0.5994,-0.5998,-0.6001,-0.6002,-0.5917,-0.5994,-0.5994,-0.5994,-0.5994,-0.5994,0,-0.5381,-0.5412,-0.546,-0.552,-0.5561,-0.5566,-0.5614,-0.5648,-0.5701,-0.5744,-0.579,-0.5855,-0.591,-0.5952,-0.6008,-0.6037,-0.6043,-0.6051,-0.6049,-0.6056,-0.6003,-0.5989,-0.6045,-0.6045,-0.6045,-0.6045,-0.6045,-0.6045,-0.5421,-0.5483,-0.5502,-0.5582,-0.5613,-0.5671,-0.5698,-0.5735,-0.577,-0.5842,-0.5887,-0.5914,-0.5957,-0.6016,-0.6066,-0.6077,-0.6097,-0.6104,-0.6116,-0.6066,-0.606,-0.6055,-0.6041,-0.6108,-0.6108,-0.6165,-0.6165,-0.6166]},{"header":{"parameterUnit":"m.s-1","parameterCategory":1,"la1":30.2991,"la2":30.254,"lo1":-89.0895,"lo2":-89.0444,"dy":0.0017,"dx":0.0017,"nx":28,"ny":28,"refTime":"2025-08-18T09:00:00:Z","depth":0,"parameterNumber":3,"parameterNumberName":"V-component_of_WINDS"},"data":[0,0,0,0,0,0,0,0,0,0,0,0,0,0,0,0,0,0,0,0,0,0,0,0,0,0,0,0,0,0,0,0,0,0,0,0,0,0,0,0,0,0,0,0,0,0,0,0,0,0,0,0,0,0,0,0,0,0,-2.0985,-2.0985,0,-2.1002,-2.1003,-2.1003,-2.0983,-2.0982,-2.0981,-2.0981,-2.0997,-2.0998,-2.0999,0,0,0,0,0,0,0,0,0,0,0,0,0,-2.0931,-2.0932,-2.0985,-2.0985,-2.0985,-2.1002,-2.1003,-2.1003,-2.0983,-2.0982,-2.0981,-2.098,-2.0997,-2.0998,-2.0999,0,0,0,0,0,0,0,0,0,0,0,0,0,-2.0952,-2.0933,-2.0985,-2.0977,-2.0977,-2.1002,-2.1003,-2.1003,-2.0983,-2.0982,-2.0981,-2.098,-2.0996,-2.0998,-2.1,-2.1033,0,0,-2.1005,-2.1006,0,0,0,0,0,0,0,0,-2.0951,-2.0954,-2.0978,-2.0978,-2.0977,-2.0989,-2.099,-2.1013,-2.0983,-2.0981,-2.0981,-2.0979,-2.0995,-2.0997,-2.1003,-2.1033,-2.1034,-2.1005,-2.1006,-2.1007,-2.1007,0,0,0,0,0,0,0,-2.095,-2.0953,-2.0992,-2.0978,-2.0978,-2.0972,-2.0974,-2.0994,-2.0994,-2.0981,-2.0979,-2.0982,-2.0995,-2.1001,-2.1003,-2.1034,-2.1005,-2.1006,-2.1007,-2.1008,-2.1091,-2.1092,0,0,0,0,0,0,-2.0949,-2.0952,-2.0991,-2.0992,-2.0961,-2.0974,-2.0976,-2.0987,-2.0994,-2.0994,-2.0983,-2.0981,-2.0999,-2.1001,-2.1003,-2.1041,-2.1007,-2.1008,-2.1009,-2.109,-2.1092,-2.1093,0,0,0,0,0,0,-2.0948,-2.0953,-2.099,-2.0972,-2.0976,-2.0976,-2.0988,-2.0987,-2.0994,-2.0995,-2.0995,-2.0989,-2.0998,-2.1001,-2.1025,-2.1042,-2.1009,-2.1011,-2.1089,-2.1091,-2.1092,-2.1118,0,0,0,0,0,0,-2.0947,-2.0953,-2.0966,-2.0972,-2.0977,-2.1013,-2.0989,-2.0989,-2.0997,-2.0995,-2.1001,-2.1001,-2.0997,-2.1023,-2.1027,-2.1043,-2.1012,-2.1087,-2.109,-2.1092,-2.1116,-2.1121,-2.1125,0,0,0,0,0,-2.0945,-2.0972,-2.0967,-2.0971,-2.0994,-2.1014,-2.1016,-2.1012,-2.0998,-2.1011,-2.1012,-2.1001,-2.104,-2.1025,-2.103,-2.1047,-2.1086,-2.1089,-2.1091,-2.1114,-2.112,-2.1125,0,0,0,0,0,0,-2.0968,-2.0973,-2.0967,-2.0997,-2.1005,-2.101,-2.1026,-2.1018,-2.1029,-2.1027,-2.102,-2.1021,-2.1047,-2.105,-2.1034,-2.1079,-2.1061,-2.1064,-2.1076,-2.1082,-2.1086,-2.1084,-2.1013,0,0,0,0,0,-2.0976,-2.0993,-2.0996,-2.1023,-2.1027,-2.1026,-2.1035,-2.103,-2.1038,-2.1041,-2.1043,-2.1051,-2.1064,-2.1073,-2.1086,-2.1117,-2.1117,-2.1131,-2.1135,-2.1139,-2.1142,-2.1157,-2.1162,-2.1102,-2.1102,-2.1102,0,0,-2.0994,-2.0999,-2.101,-2.1028,-2.1033,-2.1049,-2.1029,-2.1047,-2.1059,-2.1043,-2.1066,-2.1068,-2.1076,-2.1103,-2.1115,-2.1106,-2.1159,-2.1142,-2.1145,-2.1146,-2.116,-2.1166,-2.1171,-2.1103,-2.1103,-2.1103,0,0,-2.1035,-2.1041,-2.1063,-2.1069,-2.1078,-2.1077,-2.1082,-2.1088,-2.1089,-2.1112,-2.11,-2.1114,-2.1137,-2.1143,-2.1149,-2.119,-2.118,-2.1195,-2.1218,-2.1232,-2.1237,-2.1241,-2.1255,-2.126,-2.1198,-2.1198,-2.1198,0,-2.1056,-2.108,-2.1075,-2.1094,-2.1102,-2.1089,-2.111,-2.1116,-2.1128,-2.1133,-2.1123,-2.1152,-2.1156,-2.1184,-2.1194,-2.12,-2.1205,-2.1194,-2.1237,-2.1241,-2.1245,-2.1258,-2.1263,-2.12,-2.1199,-2.1199,-2.1199,0,-2.1105,-2.1122,-2.1139,-2.1151,-2.116,-2.118,-2.1178,-2.1188,-2.1182,-2.1182,-2.1205,-2.1209,-2.1222,-2.1229,-2.1224,-2.1255,-2.1249,-2.1238,-2.1219,-2.1252,-2.1264,-2.1269,-2.1202,-2.1201,-2.1201,-2.12,0,0,-2.116,-2.1169,-2.1175,-2.118,-2.1188,-2.1201,-2.122,-2.1233,-2.1241,-2.125,-2.1264,-2.1285,-2.1274,-2.1281,-2.1276,-2.1289,-2.1321,-2.1277,-2.1277,-2.1284,-2.1354,-2.1362,-2.1368,-2.1314,-2.1315,-2.1316,-2.1353,0,-2.12,-2.1234,-2.1229,-2.1261,-2.1276,-2.1263,-2.128,-2.1286,-2.1286,-2.1298,-2.1298,-2.1312,-2.1298,-2.1302,-2.1314,-2.1314,-2.1334,-2.1312,-2.1327,-2.1328,-2.1325,-2.1374,-2.1382,-2.1417,-2.1358,-2.1359,-2.1359,0,-2.1251,-2.1261,-2.1295,-2.1299,-2.1305,-2.132,-2.1331,-2.1343,-2.135,-2.1349,-2.1356,-2.1349,-2.1367,-2.1348,-2.1372,-2.1357,-2.1363,-2.1364,-2.1365,-2.1365,-2.1345,-2.1375,-2.1428,-2.1433,-2.1367,-2.1366,-2.1366,0,-2.1287,-2.1309,-2.1331,-2.1336,-2.1342,-2.1353,-2.1356,-2.1361,-2.1369,-2.1378,-2.1383,-2.1394,-2.14,-2.1408,-2.1404,-2.1391,-2.1428,-2.141,-2.1427,-2.1427,-2.1435,-2.1434,-2.1489,-2.1441,-2.1441,-2.144,-2.144,0,-2.1331,-2.1351,-2.1347,-2.1361,-2.1383,-2.1377,-2.1399,-2.1401,-2.1405,-2.1418,-2.1409,-2.1421,-2.1415,-2.1427,-2.1423,-2.1443,-2.1446,-2.1445,-2.1444,-2.1445,-2.1445,-2.1449,-2.1446,-2.1442,-2.1442,-2.1441,-2.1441,0,-2.1374,-2.1372,-2.1396,-2.14,-2.1401,-2.1417,-2.142,-2.1432,-2.1432,-2.1448,-2.1452,-2.145,-2.1463,-2.146,-2.1475,-2.1472,-2.1497,-2.1493,-2.1494,-2.1493,-2.151,-2.1508,-2.1568,-2.1575,-2.1523,-2.1524,-2.1524,0,-2.1402,-2.1417,-2.1423,-2.1431,-2.1435,-2.1448,-2.1456,-2.145,-2.1459,-2.1467,-2.1478,-2.149,-2.1499,-2.1521,-2.1521,-2.1531,-2.1527,-2.1547,-2.1528,-2.1529,-2.1526,-2.1524,-2.1525,-2.155,-2.1551,-2.1551,-2.1552,0,-2.1451,-2.1449,-2.1461,-2.1472,-2.1481,-2.1489,-2.1496,-2.1503,-2.1499,-2.1508,-2.1522,-2.1529,-2.1543,-2.1555,-2.1565,-2.1567,-2.1558,-2.1558,-2.1562,-2.1563,-2.1563,-2.1562,-2.1503,-2.1556,-2.1556,-2.1556,-2.1555,-2.1555,-2.1487,-2.1499,-2.1505,-2.1517,-2.1522,-2.1529,-2.154,-2.1541,-2.1552,-2.1563,-2.156,-2.1575,-2.158,-2.1592,-2.1595,-2.1606,-2.1598,-2.1605,-2.1606,-2.1608,-2.1609,-2.1562,-2.1608,-2.1608,-2.1608,-2.1608,-2.1608,0,-2.1534,-2.1537,-2.1549,-2.1559,-2.1569,-2.156,-2.1568,-2.1576,-2.1589,-2.1595,-2.1604,-2.1619,-2.163,-2.1631,-2.1641,-2.165,-2.1646,-2.1653,-2.1651,-2.1652,-2.1616,-2.1611,-2.1656,-2.1656,-2.1656,-2.1656,-2.1655,-2.1655,-2.156,-2.158,-2.1579,-2.1601,-2.1604,-2.1618,-2.1623,-2.1629,-2.1633,-2.165,-2.1659,-2.166,-2.1663,-2.1673,-2.1683,-2.1683,-2.1687,-2.1694,-2.1693,-2.1659,-2.1655,-2.165,-2.1645,-2.1696,-2.1696,-2.1727,-2.1727,-2.1728]}]]